Precipitable_Water
0.39 0.37 0.36 0.36 0.36 0.35 0.35 0.35 0.35 0.35 0.35 0.36 0.38 0.38 0.37 0.36 0.35 0.35 0.36 0.37 0.38 0.37 0.34 0.32 0.30 0.28 0.27 0.25 0.23 0.22 0.23 0.22 0.22 0.22 0.22 0.22 0.22 0.21 0.21 0.20 0.18 0.17 0.16 0.17 0.18 0.16 0.15 0.15 0.15 0.14 0.14 0.13 0.12 0.11 0.10 0.10 0.09 0.09 0.09 0.09 0.09 0.09 0.09
0.39 0.38 0.37 0.36 0.35 0.35 0.35 0.34 0.34 0.34 0.34 0.34 0.35 0.36 0.37 0.36 0.35 0.36 0.36 0.37 0.36 0.35 0.34 0.32 0.30 0.28 0.27 0.26 0.24 0.23 0.22 0.22 0.22 0.22 0.22 0.22 0.22 0.21 0.21 0.21 0.19 0.18 0.16 0.16 0.17 0.16 0.16 0.16 0.16 0.14 0.14 0.12 0.11 0.11 0.10 0.09 0.09 0.09 0.09 0.09 0.09 0.10 0.10
0.40 0.39 0.38 0.36 0.35 0.35 0.35 0.34 0.33 0.33 0.33 0.33 0.34 0.35 0.36 0.36 0.35 0.36 0.36 0.37 0.36 0.35 0.34 0.32 0.30 0.28 0.27 0.26 0.25 0.24 0.23 0.23 0.23 0.23 0.23 0.23 0.22 0.21 0.21 0.21 0.20 0.19 0.17 0.17 0.16 0.17 0.16 0.15 0.15 0.13 0.13 0.13 0.12 0.11 0.11 0.09 0.09 0.08 0.09 0.09 0.10 0.10 0.11
0.40 0.39 0.39 0.37 0.36 0.35 0.35 0.34 0.33 0.32 0.32 0.32 0.33 0.34 0.35 0.36 0.36 0.36 0.37 0.37 0.37 0.36 0.34 0.31 0.29 0.28 0.27 0.26 0.25 0.24 0.24 0.24 0.24 0.24 0.24 0.23 0.22 0.22 0.22 0.21 0.21 0.20 0.19 0.18 0.16 0.16 0.15 0.15 0.14 0.14 0.14 0.13 0.12 0.11 0.10 0.09 0.09 0.09 0.09 0.09 0.10 0.11 0.11
0.41 0.39 0.39 0.38 0.37 0.36 0.36 0.35 0.34 0.32 0.31 0.31 0.31 0.32 0.34 0.36 0.36 0.36 0.35 0.36 0.37 0.35 0.33 0.31 0.29 0.27 0.27 0.26 0.24 0.24 0.24 0.25 0.25 0.25 0.25 0.24 0.23 0.23 0.22 0.22 0.22 0.21 0.20 0.18 0.16 0.16 0.15 0.15 0.15 0.15 0.14 0.13 0.11 0.10 0.10 0.09 0.09 0.09 0.09 0.10 0.11 0.11 0.11
0.40 0.40 0.38 0.39 0.38 0.37 0.37 0.36 0.35 0.34 0.32 0.31 0.31 0.31 0.32 0.35 0.36 0.36 0.35 0.35 0.36 0.35 0.33 0.30 0.29 0.27 0.26 0.25 0.24 0.24 0.24 0.25 0.25 0.26 0.25 0.24 0.23 0.23 0.23 0.22 0.22 0.21 0.20 0.18 0.17 0.15 0.14 0.15 0.14 0.14 0.14 0.13 0.11 0.10 0.09 0.09 0.09 0.09 0.10 0.10 0.10 0.10 0.09
0.39 0.40 0.39 0.39 0.39 0.38 0.37 0.37 0.36 0.35 0.34 0.32 0.31 0.30 0.30 0.32 0.34 0.36 0.36 0.35 0.35 0.35 0.33 0.31 0.28 0.27 0.26 0.24 0.24 0.24 0.25 0.26 0.26 0.25 0.24 0.24 0.23 0.23 0.23 0.22 0.21 0.20 0.19 0.18 0.16 0.16 0.15 0.15 0.15 0.15 0.12 0.11 0.12 0.11 0.10 0.09 0.08 0.08 0.10 0.10 0.09 0.09 0.09
0.37 0.39 0.39 0.39 0.39 0.39 0.38 0.37 0.36 0.36 0.34 0.33 0.32 0.30 0.29 0.29 0.30 0.31 0.33 0.33 0.34 0.33 0.32 0.30 0.28 0.27 0.26 0.25 0.24 0.24 0.26 0.26 0.25 0.25 0.24 0.24 0.23 0.23 0.23 0.22 0.21 0.20 0.19 0.17 0.16 0.15 0.15 0.14 0.14 0.14 0.13 0.12 0.11 0.10 0.09 0.09 0.09 0.08 0.08 0.08 0.09 0.09 0.07
0.36 0.37 0.38 0.39 0.39 0.39 0.39 0.37 0.37 0.36 0.35 0.34 0.33 0.31 0.29 0.29 0.29 0.30 0.30 0.30 0.30 0.31 0.30 0.29 0.28 0.27 0.27 0.26 0.25 0.26 0.27 0.27 0.26 0.24 0.23 0.23 0.24 0.23 0.22 0.21 0.20 0.19 0.18 0.17 0.16 0.16 0.15 0.14 0.13 0.12 0.12 0.11 0.10 0.09 0.08 0.09 0.09 0.09 0.09 0.08 0.07 0.07 0.09
0.35 0.36 0.36 0.37 0.37 0.38 0.38 0.38 0.37 0.37 0.36 0.35 0.34 0.32 0.30 0.29 0.29 0.29 0.29 0.28 0.28 0.29 0.29 0.29 0.28 0.28 0.27 0.26 0.26 0.27 0.27 0.27 0.26 0.25 0.24 0.24 0.24 0.23 0.21 0.20 0.19 0.19 0.18 0.17 0.16 0.15 0.14 0.13 0.12 0.12 0.11 0.11 0.10 0.10 0.10 0.09 0.09 0.08 0.08 0.07 0.07 0.08 0.09
0.34 0.34 0.35 0.36 0.36 0.36 0.36 0.37 0.37 0.37 0.37 0.36 0.35 0.33 0.31 0.29 0.28 0.28 0.28 0.28 0.28 0.28 0.28 0.28 0.27 0.28 0.27 0.27 0.27 0.28 0.27 0.26 0.26 0.25 0.26 0.25 0.24 0.23 0.21 0.20 0.20 0.19 0.18 0.17 0.16 0.15 0.14 0.13 0.12 0.12 0.12 0.11 0.10 0.10 0.10 0.09 0.09 0.08 0.08 0.07 0.07 0.06 0.08
0.34 0.34 0.34 0.35 0.36 0.36 0.36 0.36 0.36 0.37 0.37 0.36 0.36 0.34 0.31 0.29 0.28 0.27 0.27 0.27 0.27 0.28 0.28 0.27 0.28 0.28 0.27 0.27 0.27 0.28 0.27 0.26 0.26 0.26 0.26 0.27 0.26 0.25 0.25 0.24 0.22 0.19 0.18 0.17 0.15 0.14 0.14 0.13 0.12 0.12 0.11 0.10 0.10 0.09 0.09 0.09 0.09 0.08 0.08 0.08 0.07 0.08 0.07
0.34 0.34 0.34 0.35 0.35 0.35 0.35 0.35 0.36 0.36 0.36 0.36 0.35 0.34 0.32 0.29 0.28 0.27 0.26 0.27 0.27 0.27 0.27 0.27 0.27 0.27 0.26 0.27 0.27 0.28 0.26 0.25 0.25 0.26 0.26 0.27 0.26 0.24 0.23 0.22 0.21 0.20 0.18 0.16 0.15 0.14 0.13 0.13 0.12 0.11 0.10 0.10 0.10 0.11 0.10 0.09 0.09 0.09 0.09 0.09 0.08 0.08 0.08
0.34 0.34 0.34 0.34 0.34 0.35 0.35 0.35 0.35 0.35 0.35 0.36 0.35 0.34 0.32 0.29 0.28 0.27 0.27 0.27 0.27 0.26 0.27 0.27 0.27 0.26 0.25 0.26 0.27 0.27 0.25 0.24 0.24 0.24 0.24 0.23 0.22 0.22 0.21 0.19 0.17 0.16 0.15 0.15 0.14 0.13 0.12 0.12 0.11 0.10 0.11 0.11 0.12 0.11 0.10 0.10 0.09 0.09 0.09 0.09 0.08 0.08 0.09
0.33 0.34 0.34 0.34 0.34 0.34 0.34 0.35 0.35 0.35 0.35 0.35 0.35 0.34 0.32 0.29 0.29 0.28 0.27 0.27 0.27 0.27 0.27 0.27 0.26 0.25 0.25 0.25 0.26 0.26 0.25 0.24 0.24 0.23 0.23 0.22 0.21 0.20 0.18 0.16 0.15 0.14 0.14 0.13 0.13 0.12 0.12 0.13 0.13 0.13 0.13 0.13 0.13 0.13 0.12 0.11 0.10 0.09 0.09 0.08 0.08 0.08 0.08
0.33 0.33 0.33 0.34 0.34 0.34 0.34 0.34 0.35 0.35 0.35 0.35 0.34 0.34 0.32 0.30 0.28 0.28 0.27 0.27 0.27 0.27 0.27 0.27 0.26 0.25 0.25 0.26 0.26 0.26 0.26 0.25 0.25 0.23 0.22 0.21 0.20 0.19 0.17 0.16 0.15 0.15 0.15 0.14 0.14 0.14 0.14 0.14 0.15 0.15 0.14 0.14 0.13 0.12 0.11 0.10 0.09 0.08 0.08 0.07 0.06 0.06 0.06
0.33 0.34 0.34 0.33 0.34 0.33 0.33 0.33 0.34 0.35 0.35 0.34 0.34 0.33 0.32 0.30 0.28 0.28 0.27 0.26 0.27 0.27 0.27 0.27 0.26 0.26 0.26 0.27 0.26 0.26 0.26 0.26 0.26 0.23 0.22 0.21 0.20 0.18 0.16 0.14 0.14 0.15 0.15 0.15 0.15 0.15 0.15 0.15 0.13 0.12 0.11 0.11 0.11 0.10 0.10 0.08 0.07 0.06 0.07 0.06 0.05 0.05 0.06
0.33 0.34 0.34 0.33 0.33 0.33 0.33 0.33 0.34 0.34 0.34 0.34 0.34 0.32 0.30 0.28 0.27 0.27 0.27 0.26 0.27 0.27 0.27 0.27 0.26 0.27 0.27 0.27 0.26 0.26 0.26 0.27 0.26 0.25 0.23 0.21 0.19 0.16 0.14 0.14 0.14 0.14 0.14 0.14 0.14 0.14 0.13 0.12 0.11 0.10 0.10 0.09 0.09 0.09 0.09 0.07 0.05 0.06 0.06 0.05 0.05 0.05 0.08
0.32 0.33 0.33 0.34 0.34 0.34 0.33 0.33 0.33 0.34 0.34 0.34 0.33 0.31 0.30 0.28 0.26 0.26 0.26 0.26 0.27 0.27 0.28 0.27 0.28 0.28 0.28 0.27 0.26 0.27 0.27 0.27 0.27 0.25 0.22 0.20 0.18 0.15 0.14 0.13 0.13 0.13 0.13 0.13 0.12 0.11 0.11 0.10 0.09 0.08 0.08 0.07 0.07 0.07 0.07 0.06 0.05 0.05 0.05 0.05 0.06 0.08 0.10
0.32 0.32 0.32 0.33 0.33 0.34 0.34 0.33 0.33 0.33 0.33 0.33 0.32 0.31 0.29 0.28 0.26 0.25 0.26 0.27 0.26 0.26 0.27 0.27 0.27 0.28 0.28 0.27 0.27 0.27 0.27 0.27 0.26 0.24 0.22 0.19 0.16 0.14 0.12 0.14 0.14 0.13 0.12 0.12 0.11 0.10 0.09 0.08 0.07 0.07 0.07 0.07 0.07 0.06 0.06 0.06 0.06 0.06 0.06 0.07 0.07 0.10 0.12
0.31 0.31 0.32 0.33 0.33 0.33 0.34 0.34 0.33 0.33 0.33 0.32 0.32 0.30 0.29 0.28 0.27 0.26 0.26 0.26 0.26 0.26 0.26 0.26 0.27 0.28 0.28 0.28 0.27 0.27 0.27 0.26 0.24 0.23 0.21 0.18 0.15 0.14 0.15 0.14 0.13 0.12 0.12 0.11 0.10 0.09 0.08 0.08 0.07 0.07 0.07 0.07 0.06 0.06 0.06 0.06 0.06 0.06 0.07 0.08 0.09 0.12 0.14
0.29 0.30 0.30 0.32 0.32 0.33 0.33 0.34 0.33 0.32 0.32 0.32 0.31 0.30 0.29 0.29 0.28 0.28 0.26 0.26 0.26 0.26 0.26 0.26 0.26 0.27 0.27 0.28 0.28 0.27 0.26 0.25 0.24 0.21 0.19 0.17 0.17 0.17 0.15 0.13 0.12 0.12 0.11 0.10 0.09 0.08 0.08 0.08 0.07 0.07 0.07 0.06 0.06 0.06 0.05 0.05 0.06 0.06 0.08 0.10 0.12 0.14 0.14
0.28 0.29 0.29 0.30 0.31 0.32 0.32 0.33 0.33 0.33 0.32 0.31 0.31 0.30 0.30 0.30 0.29 0.29 0.27 0.26 0.25 0.25 0.26 0.26 0.26 0.26 0.26 0.27 0.27 0.26 0.25 0.23 0.21 0.19 0.17 0.18 0.17 0.15 0.14 0.13 0.11 0.11 0.10 0.09 0.09 0.08 0.08 0.07 0.07 0.07 0.07 0.06 0.06 0.05 0.05 0.05 0.06 0.07 0.08 0.11 0.14 0.16 0.17
0.28 0.29 0.29 0.28 0.29 0.31 0.31 0.32 0.32 0.33 0.32 0.31 0.31 0.31 0.31 0.30 0.30 0.29 0.28 0.27 0.26 0.26 0.26 0.26 0.26 0.25 0.26 0.26 0.26 0.25 0.24 0.22 0.20 0.18 0.18 0.17 0.15 0.14 0.13 0.11 0.10 0.10 0.09 0.09 0.08 0.08 0.08 0.07 0.07 0.07 0.07 0.06 0.06 0.06 0.05 0.05 0.06 0.07 0.09 0.12 0.15 0.17 0.18
0.28 0.28 0.28 0.29 0.29 0.29 0.30 0.31 0.32 0.32 0.32 0.31 0.31 0.31 0.31 0.30 0.30 0.29 0.29 0.27 0.27 0.26 0.26 0.26 0.26 0.26 0.26 0.26 0.26 0.24 0.23 0.21 0.19 0.18 0.16 0.15 0.13 0.12 0.11 0.10 0.10 0.09 0.09 0.08 0.08 0.08 0.08 0.08 0.07 0.07 0.07 0.06 0.06 0.06 0.06 0.05 0.06 0.07 0.10 0.13 0.16 0.17 0.18
0.28 0.28 0.28 0.28 0.29 0.29 0.30 0.30 0.30 0.30 0.30 0.31 0.31 0.31 0.30 0.30 0.30 0.29 0.29 0.28 0.27 0.26 0.26 0.26 0.26 0.27 0.26 0.26 0.25 0.23 0.20 0.18 0.17 0.16 0.15 0.13 0.12 0.11 0.10 0.10 0.10 0.09 0.09 0.08 0.08 0.08 0.08 0.08 0.07 0.07 0.07 0.06 0.06 0.06 0.05 0.05 0.05 0.06 0.09 0.12 0.15 0.17 0.17
0.27 0.27 0.27 0.27 0.28 0.29 0.29 0.29 0.29 0.29 0.30 0.30 0.31 0.30 0.30 0.30 0.29 0.30 0.28 0.27 0.26 0.26 0.26 0.27 0.27 0.26 0.26 0.25 0.24 0.22 0.20 0.17 0.16 0.14 0.13 0.11 0.11 0.10 0.10 0.10 0.10 0.09 0.09 0.09 0.08 0.08 0.08 0.08 0.08 0.07 0.07 0.06 0.06 0.05 0.05 0.05 0.05 0.05 0.07 0.11 0.15 0.16 0.16
0.28 0.27 0.27 0.26 0.27 0.28 0.28 0.28 0.28 0.29 0.28 0.29 0.30 0.30 0.29 0.29 0.29 0.29 0.28 0.27 0.26 0.26 0.27 0.26 0.26 0.25 0.25 0.24 0.22 0.19 0.17 0.15 0.14 0.12 0.11 0.11 0.11 0.10 0.11 0.10 0.10 0.10 0.09 0.09 0.09 0.08 0.08 0.08 0.08 0.07 0.06 0.06 0.06 0.05 0.05 0.05 0.05 0.05 0.06 0.09 0.13 0.15 0.15
0.29 0.29 0.29 0.28 0.26 0.26 0.26 0.27 0.28 0.28 0.29 0.29 0.29 0.29 0.29 0.28 0.28 0.29 0.28 0.27 0.27 0.26 0.26 0.25 0.24 0.23 0.23 0.22 0.20 0.16 0.15 0.14 0.12 0.11 0.11 0.11 0.10 0.10 0.10 0.10 0.10 0.09 0.09 0.09 0.09 0.08 0.08 0.08 0.07 0.07 0.06 0.06 0.06 0.05 0.05 0.05 0.05 0.05 0.05 0.07 0.11 0.14 0.14
0.30 0.30 0.30 0.29 0.28 0.27 0.26 0.26 0.27 0.29 0.30 0.29 0.29 0.29 0.29 0.28 0.29 0.29 0.28 0.28 0.27 0.26 0.24 0.23 0.22 0.22 0.22 0.21 0.18 0.15 0.13 0.12 0.11 0.11 0.10 0.10 0.11 0.10 0.10 0.10 0.09 0.09 0.09 0.09 0.09 0.09 0.08 0.08 0.07 0.07 0.06 0.06 0.06 0.06 0.05 0.05 0.05 0.05 0.05 0.06 0.09 0.12 0.14
0.32 0.31 0.31 0.29 0.28 0.29 0.29 0.28 0.28 0.29 0.29 0.29 0.29 0.29 0.29 0.28 0.29 0.29 0.28 0.28 0.26 0.24 0.23 0.22 0.22 0.22 0.21 0.19 0.16 0.14 0.12 0.11 0.11 0.10 0.10 0.10 0.10 0.10 0.10 0.10 0.10 0.10 0.10 0.09 0.09 0.09 0.08 0.08 0.07 0.07 0.06 0.06 0.06 0.06 0.06 0.05 0.05 0.05 0.05 0.05 0.07 0.10 0.12
0.32 0.31 0.31 0.31 0.29 0.28 0.28 0.28 0.28 0.29 0.29 0.29 0.29 0.28 0.28 0.28 0.28 0.28 0.28 0.27 0.26 0.23 0.22 0.22 0.22 0.21 0.20 0.17 0.15 0.13 0.12 0.11 0.10 0.10 0.10 0.10 0.10 0.10 0.10 0.10 0.10 0.10 0.10 0.09 0.09 0.09 0.08 0.08 0.07 0.07 0.07 0.06 0.06 0.06 0.06 0.05 0.05 0.05 0.05 0.05 0.06 0.08 0.11
0.31 0.31 0.30 0.30 0.30 0.29 0.28 0.27 0.28 0.28 0.28 0.28 0.28 0.28 0.28 0.27 0.28 0.27 0.27 0.26 0.24 0.23 0.22 0.22 0.22 0.21 0.19 0.16 0.14 0.13 0.11 0.11 0.10 0.10 0.10 0.10 0.10 0.10 0.10 0.10 0.10 0.10 0.10 0.09 0.09 0.09 0.08 0.08 0.08 0.07 0.07 0.07 0.07 0.06 0.06 0.06 0.05 0.05 0.05 0.05 0.05 0.07 0.09
0.30 0.29 0.28 0.28 0.29 0.28 0.28 0.27 0.27 0.28 0.28 0.28 0.28 0.27 0.27 0.27 0.27 0.27 0.26 0.24 0.23 0.22 0.22 0.22 0.22 0.21 0.18 0.16 0.14 0.12 0.11 0.11 0.10 0.11 0.11 0.10 0.10 0.10 0.10 0.10 0.10 0.10 0.09 0.09 0.09 0.09 0.08 0.08 0.08 0.08 0.07 0.07 0.07 0.07 0.06 0.06 0.06 0.06 0.05 0.05 0.05 0.06 0.07
0.27 0.27 0.27 0.27 0.28 0.28 0.28 0.28 0.27 0.28 0.28 0.28 0.28 0.27 0.27 0.26 0.25 0.24 0.24 0.23 0.23 0.23 0.22 0.22 0.22 0.20 0.17 0.15 0.13 0.12 0.11 0.11 0.11 0.11 0.11 0.10 0.10 0.10 0.10 0.10 0.10 0.10 0.09 0.09 0.09 0.09 0.09 0.08 0.08 0.08 0.08 0.08 0.07 0.07 0.07 0.06 0.06 0.06 0.06 0.05 0.05 0.05 0.06
0.27 0.27 0.27 0.27 0.28 0.29 0.29 0.28 0.28 0.28 0.28 0.27 0.27 0.27 0.26 0.24 0.23 0.23 0.22 0.22 0.22 0.22 0.22 0.22 0.22 0.20 0.17 0.14 0.12 0.12 0.11 0.11 0.11 0.11 0.11 0.11 0.11 0.10 0.10 0.10 0.10 0.09 0.09 0.09 0.09 0.09 0.09 0.09 0.08 0.08 0.08 0.08 0.08 0.07 0.07 0.07 0.07 0.07 0.06 0.06 0.06 0.05 0.05
Wind_Speed
45 45 44 43 42 41 40 40 39 38 38 38 39 38 38 38 38 39 39 39 39 38 38 37 37 37 37 37 37 37 37 37 37 37 37 37 37 36 36 36 36 37 38 37 37 38 39 40 41 42 42 43 44 45 46 47 47 47 48 47 47 46 46
46 45 45 45 44 42 41 40 40 39 38 38 38 38 38 38 38 38 39 39 39 38 37 37 37 37 37 37 38 38 38 37 37 37 37 37 37 37 36 36 37 37 38 38 38 38 39 40 40 41 42 43 45 46 46 46 46 47 47 47 46 45 44
47 46 45 45 45 44 42 41 40 40 39 39 39 39 39 39 38 38 38 38 38 38 37 37 37 37 36 36 37 38 38 38 37 37 37 38 38 37 37 37 38 38 38 38 38 39 39 40 40 42 43 43 45 46 46 46 46 46 46 46 45 44 43
48 47 46 45 45 44 43 42 41 41 40 40 40 39 39 40 39 38 38 38 38 38 37 36 36 36 36 36 36 37 37 38 38 38 38 38 38 38 38 38 38 38 38 38 39 39 40 40 41 42 43 43 45 45 46 46 46 46 45 44 44 43 43
48 47 46 45 44 44 43 42 42 41 41 40 40 40 40 40 39 38 38 37 37 37 37 36 36 35 35 35 35 36 36 36 37 37 38 38 38 38 38 38 38 38 38 38 39 40 40 41 41 42 42 43 44 45 45 45 45 45 44 43 43 43 43
48 47 46 45 44 44 44 43 42 42 41 40 40 39 40 40 39 39 38 37 37 37 37 36 36 35 35 35 35 35 35 36 36 37 37 38 38 37 37 37 37 37 38 38 39 40 40 41 41 41 42 42 43 44 45 45 45 44 42 42 43 44 45
49 48 48 47 46 44 44 43 43 42 41 41 40 39 39 39 39 39 38 38 37 37 36 36 35 35 35 34 34 34 34 35 35 36 36 37 37 36 36 36 36 37 37 38 39 39 40 40 40 40 42 42 42 43 43 43 44 43 42 43 44 46 46
49 50 50 49 48 46 44 43 42 42 41 41 40 39 39 39 38 38 38 38 37 37 36 36 35 35 35 34 34 34 34 34 35 35 36 36 35 35 35 35 36 36 36 37 38 39 39 39 39 40 41 42 41 42 42 42 43 43 44 45 46 46 45
47 49 50 50 48 46 45 43 42 41 40 40 40 39 38 38 38 37 37 37 37 36 36 36 35 34 34 34 34 34 34 34 35 35 35 34 34 34 34 34 35 35 35 36 37 37 38 38 39 40 40 40 41 42 43 43 43 44 45 46 47 45 43
42 44 46 47 46 44 44 43 41 40 40 40 40 39 38 37 37 36 36 36 35 36 36 37 36 35 34 34 35 35 34 35 35 34 34 34 33 33 33 33 34 34 34 35 35 36 37 37 38 39 40 40 41 42 43 43 43 44 46 46 46 44 40
37 39 40 41 42 42 42 41 40 40 40 39 39 38 37 36 36 35 35 35 35 36 36 36 37 36 35 35 35 34 34 34 34 34 34 33 33 32 32 33 33 33 34 34 34 35 36 37 38 39 40 41 42 42 42 43 43 44 45 45 43 41 38
33 35 36 37 39 40 40 39 39 39 39 38 38 37 36 36 35 35 35 35 36 36 36 36 36 36 35 34 34 34 33 33 33 33 33 33 32 32 32 33 33 33 33 34 34 35 35 36 38 39 40 41 42 42 42 43 43 43 43 43 42 41 39
30 31 32 33 35 37 38 38 38 39 39 38 38 37 36 35 35 35 35 35 35 35 35 35 35 35 34 34 34 33 32 32 32 32 31 31 31 31 32 32 33 34 34 34 34 35 36 37 38 39 40 40 41 41 42 42 41 42 42 42 42 42 41
27 27 28 30 32 34 34 34 36 38 38 38 37 37 35 34 34 34 34 34 34 34 34 35 35 34 34 33 33 32 31 31 31 30 30 29 29 30 31 31 32 33 34 34 35 36 37 37 38 39 40 40 40 41 41 41 41 42 43 44 43 43 42
24 25 26 27 29 30 31 31 32 34 36 36 37 36 35 33 33 33 33 33 34 34 34 34 34 33 33 32 32 31 30 30 29 29 28 28 28 29 30 30 31 32 32 33 34 35 36 36 37 38 38 38 39 39 40 41 42 43 44 45 43 41 41
22 23 24 25 27 28 28 29 30 31 33 34 35 34 33 32 32 32 32 32 32 33 33 33 32 32 31 31 30 29 29 29 28 27 27 27 27 28 29 29 30 31 31 32 33 34 35 35 36 37 38 39 39 40 41 42 43 43 43 43 41 39 39
21 20 21 23 25 26 26 26 28 29 30 31 32 32 31 30 30 31 31 31 31 32 32 32 31 30 30 29 28 28 28 28 27 26 26 26 27 27 28 29 29 30 30 31 32 33 34 35 36 37 38 39 40 40 40 41 41 41 41 40 39 38 37
19 19 19 21 23 24 24 24 25 27 27 28 29 29 29 29 29 29 29 30 30 30 30 30 29 29 28 27 27 26 27 26 25 25 25 25 26 26 27 27 28 28 29 30 31 32 33 35 36 37 37 38 39 39 39 40 40 40 40 38 37 37 36
18 18 18 19 21 22 23 23 24 25 26 27 27 27 27 27 27 28 28 28 29 28 27 27 27 27 26 25 25 26 25 25 24 24 24 25 25 26 26 26 26 27 28 29 30 31 32 33 34 35 35 36 37 38 38 38 39 39 38 37 36 35 35
17 18 18 18 19 20 21 22 22 23 24 25 26 26 25 25 25 26 25 26 26 25 25 25 25 25 25 25 24 24 24 24 23 23 24 24 24 25 25 25 25 25 26 27 28 29 31 31 32 33 33 34 35 36 37 37 37 37 36 36 35 34 34
17 18 18 18 18 19 19 20 21 21 22 23 23 24 24 24 23 23 22 22 23 24 24 24 23 23 23 23 23 23 22 22 22 22 23 23 23 23 23 23 23 24 25 26 27 28 29 30 30 31 32 33 34 35 35 35 36 35 35 34 34 34 34
17 17 18 17 17 18 18 19 19 19 20 20 21 21 22 21 21 21 20 20 21 22 23 23 23 23 22 22 21 21 21 21 22 22 22 21 21 21 20 21 22 23 24 24 25 26 27 28 29 30 31 32 33 34 35 35 35 34 34 33 33 33 33
15 16 17 16 16 17 17 17 18 18 18 18 19 19 20 20 19 19 19 19 19 21 21 21 21 21 21 20 20 20 20 21 21 20 20 19 19 19 19 20 22 22 22 23 24 25 26 27 28 29 30 32 33 34 34 34 34 33 32 32 31 31 32
14 14 15 15 15 16 16 17 17 17 17 17 17 17 18 19 19 19 18 18 18 19 20 20 19 19 19 19 19 19 20 19 19 18 18 18 17 18 19 19 20 20 20 21 23 24 25 26 27 28 30 31 32 33 33 33 33 32 31 30 30 30 31
12 13 13 13 14 15 15 16 17 17 16 16 16 16 17 18 18 18 18 17 17 18 18 18 18 18 18 18 18 18 18 18 17 17 16 16 17 17 18 18 18 18 19 20 21 22 24 25 26 27 29 30 31 32 32 32 32 31 29 28 28 29 29
10 11 12 13 14 14 15 15 16 16 16 16 16 16 16 17 17 18 18 17 17 17 17 17 17 17 17 17 17 17 17 17 16 15 15 15 16 16 16 16 17 17 18 19 20 21 23 24 25 26 28 29 30 31 31 32 31 30 29 27 27 27 28
9 10 11 12 13 14 15 15 15 15 15 16 16 15 15 15 15 16 16 16 16 16 16 16 16 16 16 16 16 16 16 15 15 15 15 14 14 14 15 15 16 16 17 18 19 20 22 23 24 26 27 28 29 30 30 30 30 29 28 26 26 26 26
9 10 10 11 12 14 14 14 15 15 15 16 16 15 15 14 14 14 15 15 15 15 15 15 15 15 15 15 15 15 15 15 14 14 14 13 13 13 14 14 15 15 16 17 18 19 21 22 24 25 27 28 28 28 29 29 29 28 27 25 25 24 25
9 10 11 12 12 13 13 14 14 15 16 16 16 16 15 15 15 14 14 15 15 15 15 15 15 15 15 15 14 14 14 14 13 13 13 12 12 13 13 13 14 14 15 16 17 19 20 22 23 25 26 27 27 27 28 29 29 28 26 25 24 23 24
11 11 12 12 13 14 14 15 15 15 15 15 16 16 15 15 15 14 14 15 16 15 15 15 15 15 14 14 14 14 14 13 13 12 12 12 12 12 12 12 13 13 14 15 17 18 19 21 23 24 25 26 26 27 27 28 28 28 26 24 23 23 23
11 11 11 12 13 14 15 15 15 15 15 15 15 15 15 15 15 15 14 15 16 15 15 15 15 14 14 14 14 14 13 13 12 12 11 11 11 11 11 11 12 13 14 15 16 17 19 21 22 23 24 24 25 26 26 27 27 27 26 24 23 23 23
10 11 11 12 13 14 14 15 15 15 16 16 15 15 15 15 15 15 14 15 15 15 15 15 14 13 14 14 14 13 13 12 12 11 11 11 10 10 10 11 11 12 13 14 15 17 19 20 21 22 23 23 24 25 25 26 27 27 26 24 23 22 22
9 10 10 11 13 13 13 14 15 16 16 16 16 15 14 14 14 14 14 15 14 14 14 14 14 13 14 14 14 13 12 12 11 11 11 10 10 9 9 10 11 11 12 13 15 16 18 20 21 21 22 22 23 24 24 25 26 26 26 24 22 22 22
9 8 9 9 11 13 13 13 14 16 16 16 16 15 15 14 14 15 15 15 14 14 14 14 14 13 14 14 13 12 12 11 11 11 10 9 9 8 8 9 10 11 11 13 15 16 17 19 20 21 21 22 22 23 23 24 25 25 25 24 23 21 21
10 7 6 7 9 11 12 12 13 14 15 15 15 16 15 15 14 15 15 15 15 14 14 14 14 13 13 13 13 12 12 11 11 10 9 8 8 8 8 9 9 10 11 13 14 15 17 18 19 20 21 21 22 22 23 23 24 24 24 24 23 22 21
11 8 4 4 6 8 10 11 11 12 14 15 15 16 16 14 14 14 14 15 15 14 14 14 14 13 13 13 13 12 12 11 10 9 8 8 7 7 7 8 9 10 11 12 13 15 16 18 19 19 20 20 21 22 22 22 23 23 23 24 23 22 21
Wind_Direction
266 265 263 262 262 262 261 259 259 258 257 256 255 253 253 253 252 253 253 254 253 252 251 253 254 255 256 257 257 257 258 259 260 261 263 265 266 267 269 271 274 278 281 284 286 288 290 293 294 295 296 298 299 301 303 304 304 304 304 303 302 302 300
266 264 262 261 260 260 259 258 257 257 256 255 254 253 253 253 252 252 253 253 253 252 251 252 253 255 256 257 257 257 258 258 259 261 262 264 265 267 269 272 274 278 282 284 287 289 291 293 294 295 296 298 300 302 303 304 305 305 305 303 303 302 301
265 263 262 261 260 259 258 256 256 256 255 254 254 253 253 252 252 252 252 253 253 252 251 252 253 254 255 257 258 258 258 259 259 260 262 263 265 267 269 272 275 278 282 285 287 289 291 293 294 295 297 299 300 302 303 305 305 306 305 304 303 302 301
263 261 260 260 259 257 256 255 255 255 254 254 254 253 253 252 252 252 252 253 253 252 251 252 253 254 255 256 257 258 259 259 259 260 262 263 265 267 269 272 275 278 281 284 287 289 291 293 294 295 297 299 300 302 303 304 305 306 305 304 303 302 301
263 260 258 258 257 255 254 254 254 253 253 253 253 253 253 252 251 251 252 253 253 252 251 251 253 255 256 257 257 259 259 260 260 261 262 263 265 267 270 273 276 278 281 284 287 289 292 293 294 295 297 299 301 302 303 305 306 306 305 305 304 302 300
262 259 256 255 256 255 252 252 252 252 251 252 252 253 252 251 250 250 251 252 252 251 251 251 253 255 256 257 257 258 260 261 261 262 263 264 265 268 270 273 276 278 281 284 287 289 292 293 294 295 297 299 301 302 304 305 306 306 305 304 304 302 301
260 258 254 252 253 253 251 250 250 250 250 250 251 251 251 250 249 248 250 251 252 251 251 252 253 255 256 257 258 259 260 262 262 262 263 264 266 268 270 273 276 278 281 284 286 289 291 293 293 295 297 300 301 302 303 305 306 306 305 304 304 303 301
259 257 254 251 251 251 250 249 248 248 249 249 250 250 249 249 248 248 249 250 250 251 251 252 253 255 256 257 258 260 261 262 263 263 264 265 266 267 270 273 276 279 281 284 286 289 291 292 293 295 298 300 301 302 304 305 305 305 305 305 305 304 301
260 257 254 250 250 250 249 248 247 247 247 248 248 248 247 247 246 247 247 248 249 250 251 252 253 255 256 257 259 259 260 262 262 263 264 264 265 267 270 274 276 279 282 284 286 289 290 291 293 296 298 300 301 303 304 305 305 304 306 306 306 304 301
263 259 254 249 247 247 247 246 246 246 245 245 246 246 246 246 246 246 246 248 250 251 252 253 254 255 256 257 259 259 259 261 262 263 263 264 265 267 271 274 276 279 282 284 286 288 289 291 293 296 298 299 301 303 304 305 305 305 307 307 307 305 302
264 259 254 247 244 244 244 244 244 243 243 243 243 244 245 245 245 245 247 249 250 252 253 254 255 256 256 258 259 258 258 260 261 263 263 263 264 268 271 273 276 280 282 284 286 287 289 291 294 296 298 300 302 303 304 305 306 306 307 308 308 306 303
264 258 252 246 242 242 241 241 241 241 241 241 241 242 244 245 246 246 248 250 251 252 254 255 256 256 256 257 258 257 258 259 261 262 263 263 264 267 270 272 275 280 282 283 286 288 290 292 294 297 299 301 303 304 305 306 306 307 307 307 307 305 302
266 258 251 245 242 241 240 241 241 239 239 240 241 241 242 245 247 248 249 250 251 252 254 255 256 255 255 256 257 256 256 258 260 262 262 263 265 267 269 272 276 280 282 284 286 288 290 293 296 298 300 303 304 305 306 307 307 307 306 306 305 304 302
267 258 251 246 243 240 239 241 241 240 239 240 240 239 240 244 247 248 249 250 250 251 253 254 254 253 253 255 256 255 254 256 259 261 262 263 265 267 270 275 279 282 283 285 287 289 292 295 297 299 301 304 305 305 306 307 307 307 306 305 305 303 302
266 259 252 246 243 240 238 240 241 239 239 239 238 238 239 242 246 248 250 250 250 252 253 253 253 252 253 255 254 252 252 254 257 258 260 263 265 268 273 278 281 282 284 286 288 290 294 296 298 300 303 305 305 305 305 306 306 306 306 307 306 304 303
266 260 252 246 242 239 237 238 239 238 239 238 238 239 239 241 244 247 249 250 250 251 252 252 251 252 252 252 250 249 250 252 254 256 259 262 266 271 276 279 281 283 285 287 290 292 295 297 299 302 303 304 305 306 306 307 307 307 308 309 308 306 304
266 261 253 245 241 237 236 238 238 237 238 238 238 238 239 241 243 246 248 249 250 250 250 250 250 250 249 248 247 247 247 248 251 255 258 262 268 273 277 280 282 284 286 289 291 294 297 299 301 303 305 305 306 307 308 308 308 309 310 310 308 307 306
267 262 253 244 238 236 236 237 237 236 237 239 239 238 240 242 243 244 247 248 249 250 249 246 245 245 244 243 244 245 245 247 251 254 258 264 269 274 277 280 283 286 288 291 294 296 299 301 304 306 306 307 308 308 309 309 309 310 311 309 308 307 306
264 259 251 242 236 235 236 236 237 237 237 238 238 238 239 241 242 242 245 247 248 248 245 241 240 240 239 241 242 243 243 247 251 256 260 265 270 274 277 281 284 286 289 293 296 298 301 304 307 308 309 310 310 310 310 310 310 311 311 309 308 308 307
260 254 249 242 236 235 236 237 237 236 236 236 237 237 238 240 241 241 243 244 244 243 240 238 239 238 237 238 240 242 244 248 253 257 262 266 270 274 278 281 284 288 291 295 298 301 304 307 309 311 312 313 313 313 313 313 312 312 311 310 309 309 308
255 250 246 241 237 235 236 237 236 235 235 235 236 236 236 238 239 239 239 239 239 238 237 237 238 237 236 236 239 242 246 249 252 256 261 266 270 274 278 282 286 289 293 296 299 303 307 311 313 314 316 316 317 317 317 316 315 315 314 312 310 309 308
251 247 242 238 236 235 236 236 234 233 233 233 233 234 234 235 236 235 234 234 236 236 236 236 237 236 235 236 239 242 245 248 252 256 261 265 269 272 278 283 287 290 294 298 302 306 310 314 316 317 318 319 320 320 320 319 318 318 316 314 312 310 310
246 244 240 238 237 236 235 233 232 231 230 230 231 232 233 232 232 232 232 233 235 235 235 235 236 235 234 236 239 241 244 248 252 256 260 263 268 274 281 285 288 292 296 300 305 310 313 316 319 320 320 322 323 324 323 323 321 320 319 317 315 313 313
242 242 239 237 238 234 230 230 230 229 228 229 231 233 233 231 230 229 231 234 235 235 234 234 234 233 232 235 238 240 243 247 250 254 258 264 271 277 282 285 289 293 298 303 308 313 316 319 321 322 323 324 326 327 327 326 325 323 322 320 319 318 318
240 240 238 236 234 229 226 228 229 227 229 231 233 234 234 233 231 229 229 232 234 234 234 233 231 230 231 233 236 239 242 246 249 253 259 266 273 278 282 286 290 294 300 306 311 315 319 321 323 324 325 326 328 330 330 330 329 327 326 324 323 323 324
240 239 237 235 231 225 225 228 227 228 231 233 234 235 235 234 233 229 226 227 231 231 230 228 227 227 229 231 234 238 242 246 250 254 261 268 272 277 281 286 290 296 303 309 314 318 321 323 324 326 327 329 331 333 333 334 333 332 330 328 327 329 331
244 241 236 234 231 226 226 229 230 231 232 233 233 234 234 234 234 230 225 225 228 228 227 225 223 223 226 230 233 238 242 245 250 256 262 267 272 276 281 286 292 299 306 311 316 319 322 324 326 328 330 332 334 335 336 337 337 336 334 332 331 334 336
248 242 237 236 233 229 229 232 232 232 232 233 233 232 231 231 233 232 229 225 226 226 225 223 222 222 226 232 235 239 242 245 250 255 260 265 271 276 282 288 294 302 309 314 318 322 324 326 328 331 333 335 336 338 339 340 341 340 338 336 336 337 340
256 246 240 239 236 232 231 233 234 234 233 233 231 228 228 229 230 232 229 222 219 220 220 220 221 223 227 233 236 237 240 243 247 253 258 263 269 275 282 289 297 305 311 316 321 325 327 329 331 333 335 337 338 341 342 343 344 344 342 340 340 341 343
264 255 247 242 239 236 234 233 234 233 231 229 228 226 228 229 227 227 224 216 212 214 217 220 222 224 228 232 233 234 236 240 244 249 254 259 266 274 282 291 300 308 313 318 323 327 328 331 334 335 337 339 340 343 345 346 347 347 346 344 344 345 346
268 263 256 246 240 238 235 231 230 228 226 226 226 226 226 226 223 221 216 210 209 214 218 220 223 225 228 229 230 232 234 237 241 245 250 256 264 273 283 293 302 309 315 320 325 328 330 333 336 337 339 341 342 344 346 348 349 350 349 348 347 348 348
278 270 261 248 238 237 235 230 226 224 224 225 225 223 223 223 221 216 210 206 209 214 218 220 222 224 226 227 228 230 232 235 239 243 247 254 262 272 284 295 304 311 317 322 326 329 333 336 338 340 341 343 345 346 348 350 351 352 352 350 349 350 351
300 281 265 248 236 233 232 229 225 223 223 223 222 221 220 220 218 214 209 207 210 215 218 220 220 222 225 226 227 229 231 233 237 241 245 253 262 273 285 296 305 313 319 324 328 331 335 337 340 342 343 345 347 349 350 351 352 353 353 353 352 352 353
321 297 271 248 233 228 227 226 225 223 222 221 219 217 216 217 217 215 213 212 213 214 217 219 220 222 225 226 226 227 228 230 235 238 243 252 263 275 288 298 306 314 320 325 329 332 336 339 341 344 345 346 348 350 352 353 353 354 354 355 354 353 353
341 319 282 250 230 224 222 222 224 223 220 219 217 215 214 214 215 215 215 215 212 211 214 218 220 222 224 224 224 224 225 227 231 234 241 252 263 276 290 299 307 314 320 324 329 334 337 340 342 344 346 347 348 351 353 354 354 355 355 356 355 354 354
3 354 320 256 229 220 216 218 223 222 218 217 216 214 213 213 212 212 213 212 210 209 212 216 219 221 222 222 221 221 222 224 227 232 240 253 265 278 291 299 306 314 319 324 331 335 338 341 343 345 346 347 348 351 353 353 354 355 356 356 356 356 354